TimeCDT,TemperatureF,Dew PointF,Humidity,Sea Level PressureIn,VisibilityMPH,Wind Direction,Wind SpeedMPH,Gust SpeedMPH,PrecipitationIn,Events,Conditions,WindDirDegrees,DateUTC
12:15 AM,46.6,44.8,93,29.72,10.0,West,9.2,-,N/A,,Overcast,280,2012-10-20 05:15:00
12:35 AM,46.6,44.8,93,29.72,10.0,West,9.2,-,N/A,,Overcast,280,2012-10-20 05:35:00
12:55 AM,46.4,44.8,94,29.73,10.0,WNW,6.9,-,N/A,,Overcast,300,2012-10-20 05:55:00
1:15 AM,46.4,44.8,94,29.73,10.0,NW,6.9,-,N/A,,Overcast,310,2012-10-20 06:15:00
1:35 AM,46.4,44.8,94,29.74,10.0,WNW,5.8,-,N/A,,Overcast,300,2012-10-20 06:35:00
1:55 AM,46.4,44.2,92,29.74,10.0,WNW,6.9,-,N/A,,Overcast,300,2012-10-20 06:55:00
2:15 AM,45.9,44.2,94,29.75,10.0,WNW,5.8,-,N/A,,Overcast,290,2012-10-20 07:15:00
2:35 AM,45.5,43.7,93,29.75,10.0,WNW,5.8,-,N/A,,Overcast,290,2012-10-20 07:35:00
2:55 AM,43.9,42.1,93,29.76,10.0,West,5.8,-,N/A,,Mostly Cloudy,280,2012-10-20 07:55:00
3:15 AM,43.7,42.4,95,29.76,10.0,WNW,3.5,-,N/A,,Overcast,290,2012-10-20 08:15:00
3:35 AM,41.9,40.8,96,29.76,7.0,West,4.6,-,N/A,,Scattered Clouds,280,2012-10-20 08:35:00
3:55 AM,42.3,41.9,99,29.75,7.0,WNW,3.5,-,N/A,,Mostly Cloudy,290,2012-10-20 08:55:00
4:15 AM,42.8,41.9,97,29.75,7.0,Calm,Calm,-,N/A,,Overcast,0,2012-10-20 09:15:00
4:35 AM,41.9,41.4,98,29.76,5.0,West,4.6,-,N/A,,Mostly Cloudy,270,2012-10-20 09:35:00
4:55 AM,41.2,41.0,99,29.77,5.0,WNW,5.8,-,N/A,,Scattered Clouds,290,2012-10-20 09:55:00
5:15 AM,40.5,39.7,97,29.77,5.0,WNW,5.8,-,N/A,,Scattered Clouds,300,2012-10-20 10:15:00
5:35 AM,40.6,40.5,99,29.78,4.0,West,4.6,-,N/A,,Scattered Clouds,280,2012-10-20 10:35:00
5:55 AM,41.4,41.2,99,29.79,3.0,West,6.9,-,N/A,,Mostly Cloudy,280,2012-10-20 10:55:00
6:15 AM,42.3,42.3,100,29.79,3.0,West,5.8,-,N/A,,Overcast,280,2012-10-20 11:15:00
6:35 AM,43.3,43.2,99,29.80,1.5,WNW,6.9,-,N/A,,Overcast,290,2012-10-20 11:35:00
6:55 AM,43.7,43.3,99,29.81,4.0,WNW,6.9,-,N/A,,Overcast,290,2012-10-20 11:55:00
7:15 AM,43.7,42.6,96,29.82,5.0,West,9.2,-,N/A,,Overcast,280,2012-10-20 12:15:00
7:35 AM,43.7,42.3,95,29.83,5.0,WNW,6.9,-,N/A,,Overcast,300,2012-10-20 12:35:00
7:55 AM,44.1,42.1,93,29.84,7.0,West,6.9,-,N/A,,Overcast,280,2012-10-20 12:55:00
8:15 AM,43.9,41.9,93,29.85,7.0,WNW,8.1,-,N/A,,Overcast,300,2012-10-20 13:15:00
8:35 AM,44.6,42.1,91,29.86,5.0,West,6.9,-,N/A,,Overcast,280,2012-10-20 13:35:00
8:55 AM,44.6,42.3,91,29.86,4.0,WNW,6.9,-,N/A,,Overcast,300,2012-10-20 13:55:00
9:15 AM,44.8,42.3,91,29.86,5.0,West,6.9,-,N/A,,Overcast,280,2012-10-20 14:15:00
9:35 AM,45.1,42.4,90,29.86,7.0,WNW,6.9,-,N/A,,Overcast,300,2012-10-20 14:35:00
9:55 AM,45.7,42.8,90,29.87,10.0,WNW,6.9,-,N/A,,Overcast,300,2012-10-20 14:55:00
10:15 AM,46.0,42.8,88,29.88,10.0,West,5.8,-,N/A,,Overcast,270,2012-10-20 15:15:00
10:35 AM,46.4,43.0,88,29.88,10.0,West,8.1,-,N/A,,Overcast,260,2012-10-20 15:35:00
10:55 AM,47.7,43.2,84,29.89,10.0,West,6.9,-,N/A,,Overcast,260,2012-10-20 15:55:00
11:15 AM,47.1,41.9,82,29.88,10.0,WNW,4.6,-,N/A,,Mostly Cloudy,290,2012-10-20 16:15:00
11:35 AM,48.2,42.6,81,29.88,10.0,West,4.6,-,N/A,,Mostly Cloudy,270,2012-10-20 16:35:00
11:55 AM,49.3,42.6,78,29.88,10.0,West,5.8,-,N/A,,Mostly Cloudy,280,2012-10-20 16:55:00
12:15 PM,49.6,42.8,77,29.87,10.0,West,3.5,-,N/A,,Mostly Cloudy,270,2012-10-20 17:15:00
12:35 PM,53.4,43.5,69,29.88,10.0,West,6.9,-,N/A,,Overcast,270,2012-10-20 17:35:00
12:55 PM,53.4,43.0,68,29.88,10.0,SW,10.4,-,N/A,,Overcast,220,2012-10-20 17:55:00
1:15 PM,52.3,42.1,68,29.88,10.0,SSW,8.1,-,N/A,,Scattered Clouds,210,2012-10-20 18:15:00
1:35 PM,53.2,42.4,67,29.87,10.0,WNW,5.8,-,N/A,,Scattered Clouds,290,2012-10-20 18:35:00
1:55 PM,51.4,40.6,67,29.86,10.0,West,5.8,-,N/A,,Mostly Cloudy,270,2012-10-20 18:55:00
2:15 PM,51.8,41.0,67,29.86,10.0,SW,4.6,-,N/A,,Scattered Clouds,230,2012-10-20 19:15:00
2:35 PM,52.5,40.8,64,29.85,10.0,Calm,Calm,-,N/A,,Scattered Clouds,0,2012-10-20 19:35:00
2:55 PM,54.7,41.5,61,29.86,10.0,Calm,Calm,-,N/A,,Overcast,0,2012-10-20 19:55:00
3:15 PM,55.6,41.7,60,29.86,10.0,SSW,5.8,-,N/A,,Mostly Cloudy,210,2012-10-20 20:15:00
3:35 PM,53.6,41.2,63,29.86,10.0,WNW,5.8,-,N/A,,Mostly Cloudy,300,2012-10-20 20:35:00
3:55 PM,55.6,41.4,59,29.85,10.0,WSW,6.9,-,N/A,,Mostly Cloudy,240,2012-10-20 20:55:00
4:15 PM,54.1,41.2,62,29.85,10.0,SW,8.1,-,N/A,,Scattered Clouds,220,2012-10-20 21:15:00
4:35 PM,54.7,41.7,62,29.86,10.0,SW,5.8,-,N/A,,Mostly Cloudy,230,2012-10-20 21:35:00
4:55 PM,54.1,40.8,61,29.86,10.0,WSW,6.9,-,N/A,,Scattered Clouds,240,2012-10-20 21:55:00
5:15 PM,53.1,40.6,63,29.86,10.0,SW,3.5,-,N/A,,Clear,230,2012-10-20 22:15:00
5:35 PM,52.7,41.0,64,29.86,10.0,Calm,Calm,-,N/A,,Clear,0,2012-10-20 22:35:00
5:55 PM,51.4,40.6,67,29.86,10.0,Calm,Calm,-,N/A,,Clear,0,2012-10-20 22:55:00
6:15 PM,50.0,40.3,69,29.86,10.0,Calm,Calm,-,N/A,,Clear,0,2012-10-20 23:15:00
6:35 PM,47.5,42.1,82,29.86,10.0,Calm,Calm,-,N/A,,Clear,0,2012-10-20 23:35:00
6:55 PM,46.2,40.5,80,29.86,10.0,SSE,3.5,-,N/A,,Clear,150,2012-10-20 23:55:00
7:15 PM,44.4,40.3,85,29.87,10.0,Calm,Calm,-,N/A,,Clear,0,2012-10-21 00:15:00
7:35 PM,45.1,40.3,83,29.88,10.0,SE,3.5,-,N/A,,Clear,140,2012-10-21 00:35:00
7:55 PM,46.4,40.1,79,29.88,10.0,Calm,Calm,-,N/A,,Clear,0,2012-10-21 00:55:00
8:15 PM,45.3,39.6,80,29.89,10.0,Calm,Calm,-,N/A,,Clear,0,2012-10-21 01:15:00
8:35 PM,45.5,39.9,81,29.89,10.0,SE,3.5,-,N/A,,Clear,130,2012-10-21 01:35:00
8:55 PM,45.1,39.7,81,29.90,10.0,SE,3.5,-,N/A,,Clear,130,2012-10-21 01:55:00
9:15 PM,44.8,39.4,81,29.90,10.0,SE,3.5,-,N/A,,Clear,130,2012-10-21 02:15:00
9:35 PM,44.6,39.4,82,29.90,10.0,SE,4.6,-,N/A,,Clear,130,2012-10-21 02:35:00
9:55 PM,44.4,39.4,82,29.90,10.0,SE,3.5,-,N/A,,Clear,130,2012-10-21 02:55:00
10:15 PM,43.5,39.2,85,29.91,10.0,ESE,3.5,-,N/A,,Clear,120,2012-10-21 03:15:00
10:35 PM,43.7,39.2,84,29.91,10.0,SE,3.5,-,N/A,,Clear,130,2012-10-21 03:35:00
10:55 PM,43.7,39.2,84,29.91,10.0,SE,3.5,-,N/A,,Clear,130,2012-10-21 03:55:00
11:15 PM,43.3,39.2,85,29.91,10.0,SE,3.5,-,N/A,,Clear,130,2012-10-21 04:15:00
11:35 PM,43.9,39.2,84,29.91,10.0,SSE,3.5,-,N/A,,Clear,150,2012-10-21 04:35:00
11:55 PM,43.5,39.0,84,29.91,10.0,ESE,3.5,-,N/A,,Clear,120,2012-10-21 04:55:00